Weather History for Lamar, CO

Change the Weather History Date:

Thursday, January 31, 2013

  Actual Average Record
Temperature  
Mean Temperature 30 °F 31 °F  
Max Temperature 47 °F 47 °F 77 °F (1989)
Min Temperature 12 °F 15 °F -13 °F (1979)
Degree Days  
Heating Degree Days 35 34  
Month to date heating degree days 1069 1118  
Since 1 July heating degree days 3219 3431  
Cooling Degree Days 0 0  
Month to date cooling degree days 0 0  
Year to date cooling degree days 0 0  
Moisture  
Dew Point 18 °F    
Average Humidity 65    
Maximum Humidity 92    
Minimum Humidity 37    
Precipitation  
Precipitation 0.00 in 0.01 in 0.19 in (1983)
Month to date precipitation 0.02 0.30  
Year to date precipitation 0.02 0.30  
Sea Level Pressure  
Sea Level Pressure 30.15 in    
Wind  
Wind Speed 7 mph (SE)    
Max Wind Speed 16 mph    
Max Gust Speed 20 mph    
Visibility 10 miles    
Events      
T = Trace of Precipitation, MM = Missing Value Source: NWS Daily Summary

Daily Weather History Graph

Daily Weather History Graph

Search for Another Location

Airport:

Trip Planner

Search our weather history database for the weather conditions in past years. The results will help you decide how hot, cold, wet, or windy it might be!

Date:

Astronomy

Jan. 31, 2013 Rise Set
Actual Time 6:55 AM MST 5:13 PM MST
Civil Twilight 6:28 AM MST 5:40 PM MST
Nautical Twilight 5:56 AM MST 6:12 PM MST
Astronomical Twilight 5:25 AM MST 6:43 PM MST
Moon 10:11 PM MST (1/31) 9:02 AM MST (1/31)
Length of Visible Light 11h 12m
Length of Day
10h 17m
Waning Gibbous, 79% of the Moon is Illuminated
Jan 31
Waning Gibbous
Feb 3
Last Quarter
Feb 10
New
Feb 17
First Quarter
Feb 25
Full

Hourly Weather History & Observations

Time (MST) Temp. Windchill Dew Point Humidity Pressure Visibility Wind Dir Wind Speed Gust Speed Precip Events Conditions
12:53 AM 15.1 °F 5.2 °F 10.9 °F 84% 29.98 in 10.0 mi WSW 6.9 mph - N/A   Clear
1:53 AM 17.1 °F 10.0 °F 12.9 °F 84% 29.98 in 10.0 mi West 4.6 mph - N/A   Clear
2:53 AM 12.9 °F 2.6 °F 9.0 °F 84% 29.99 in 10.0 mi SW 6.9 mph - N/A   Clear
3:53 AM 21.0 °F 10.6 °F 14.0 °F 74% 29.96 in 10.0 mi WSW 9.2 mph - N/A   Clear
4:53 AM 19.9 °F 11.1 °F 14.0 °F 78% 29.99 in 10.0 mi WSW 6.9 mph - N/A   Clear
5:53 AM 19.0 °F 12.3 °F 12.9 °F 77% 30.05 in 10.0 mi NW 4.6 mph - N/A   Clear
6:53 AM 15.1 °F 7.7 °F 10.0 °F 80% 30.12 in 10.0 mi SSW 4.6 mph - N/A   Clear
7:53 AM 19.9 °F - 12.9 °F 74% 30.17 in 10.0 mi Calm Calm - N/A   Clear
8:53 AM 30.9 °F - 15.1 °F 52% 30.17 in 10.0 mi Calm Calm - N/A   Clear
9:53 AM 36.0 °F 30.3 °F 19.0 °F 50% 30.20 in 10.0 mi NE 6.9 mph - N/A   Clear
10:53 AM 39.9 °F 33.4 °F 19.9 °F 45% 30.19 in 10.0 mi ENE 10.4 mph - N/A   Clear
11:53 AM 42.1 °F 37.7 °F 21.0 °F 43% 30.21 in 10.0 mi ESE 6.9 mph - N/A   Clear
12:53 PM 44.1 °F 41.5 °F 21.0 °F 40% 30.18 in 10.0 mi SSE 4.6 mph - N/A   Clear
1:53 PM 45.0 °F 41.2 °F 21.9 °F 40% 30.16 in 10.0 mi SE 6.9 mph - N/A   Clear
2:53 PM 46.0 °F 42.5 °F 21.9 °F 39% 30.17 in 10.0 mi East 6.9 mph - N/A   Clear
3:53 PM 46.0 °F 41.0 °F 23.0 °F 40% 30.16 in 10.0 mi SE 10.4 mph - N/A   Clear
5:53 PM 35.1 °F 27.9 °F 24.1 °F 64% 30.22 in 10.0 mi ESE 9.2 mph - N/A   Clear
6:53 PM 30.0 °F 20.0 °F 25.0 °F 82% 30.27 in 10.0 mi East 12.7 mph - N/A   Clear
7:53 PM 27.0 °F 18.0 °F 24.1 °F 89% 30.29 in 10.0 mi East 9.2 mph - N/A   Clear
8:53 PM 25.0 °F 15.5 °F 23.0 °F 92% 30.27 in 9.0 mi East 9.2 mph - N/A   Clear
9:28 PM 24.8 °F 14.6 °F 21.2 °F 86% 30.20 in 8.0 mi East 10.4 mph - N/A   Partly Cloudy
9:53 PM 24.1 °F 14.4 °F 21.9 °F 91% 30.26 in 8.0 mi ESE 9.2 mph - N/A   Clear
10:53 PM 21.9 °F 12.5 °F 19.9 °F 92% 30.25 in 7.0 mi East 8.1 mph - N/A   Partly Cloudy
11:53 PM 21.0 °F 11.4 °F 19.0 °F 92% 30.23 in 7.0 mi East 8.1 mph - N/A   Clear